Location: Grantsboro
(35.1404°N, 76.8424°W)
Time: 15:59:00
(UTC+00:00)

H-2A R/B - Pass Details

Date: 18 January 2020
Orbit: 503 x 540 km, 97.3° (Epoch: 06 February)

Event Time Altitude Azimuth Distance (km) Brightness Sun altitude
Rises 11:33:00 0° 5° (N) 2,702 6.2 -8.7°
Reaches altitude 10° 11:35:10 10° 1° (N) 1,805 5.3 -8.3°
Maximum altitude 11:38:58 52° 285° (WNW) 670 2.9 -7.5°
Drops below altitude 10° 11:42:43 10° 208° (SSW) 1,782 5.4 -6.8°
Sets 11:44:50 0° 203° (SSW) 2,663 6.3 -6.4°
